STARLINK-36877, 67896

Orbit data source: Space-Track

STARLINK-36877, 67896 is a payload satellite owned by SpaceX/Seattle (US) in SSO that was launched on Sat, 21 Feb 2026 UTC via an FALCON 9 launch vehicle from the Air Force Western Test Range (AFWTR). Payload-class satellites include a variety of spacecraft equipped with specific instruments for various scientific and technological missions. These include communications satellites like Starlink; space stations such as the ISS; scientific satellites like the Hubble; Earth observation satellites from companies like Planet Labs, Umbra, and HawkEye 360; GPS; miniature CubeSats for education and research; and military/defense satellites.

Loading next visibility...
Identifier
67896, 2026-035T
Orbit
SSO
Country
Flag of USUS
Related business
Manufacturer
SpaceX/Seattle
Mission
Operational Commercial Communications
Bus & Motor
STARLINK V2MO, Unknown motor
Mass
575 kg wet, ~530 kg dry
Launch date (UTC)
2026-02-21 (4 months ago)
Launch vehicle
FALCON 9
Launch site
Air Force Western Test Range (AFWTR)
Object type
Payload
Rocket body
Debris
Shape & HBR
Box + 2 Pan, 17.7 m
Radar Cross Section
36.964 m², Large (>1 m²)

Expand to show TLE details & history
Last TLE update: 12 hours ago

TLE from 12 hours ago
0 STARLINK-36877
1 67896U 26035T   26171.34842260  .00011706  00000-0  36441-3 0  9994
2 67896  97.2836 104.5514 0002199 111.5944 248.5533 15.33438627 19720
Epoch: 2026-06-20T08:21Z
TLE epoch observation values (Epoch: 2026-06-20T08:21:43.712Z)
Latitude
-0.00005°
Longitude
70.55494°
Altitude
469.225 km
Speed
7.631 km/s
True Right ascension
06h 58m 12s
True Declination
0° 00' 00"
Sunlit
Object was in daylight at epoch
Visualization orbit readout
Latitude
Unknown
Longitude
Unknown
Altitude
Unknown
Speed
Unknown
Apparent Right ascension
Unknown
Apparent Declination
Unknown
Sunlit
N/A
Visualization observer readout
Local Sidereal Time
07:12:50
Azimuth
Unknown
Elevation
Unknown
Doppler factor
Unknown
Orbital elements
Apogee altitude
464.009 km
Perigee altitude
461.001 km
Semi-major axis
6,840.642 km
Eccentricity
0.00022
Inclination
97.2836°
RAAN
104.5514°
Arg. of periapsis
111.5944°
True anomaly
248.52985°
Mean anomaly
248.5533°
Eccentric anomaly
248.54157°
Mean motion
3.83617 °/min
Orbital period
93.84 mins
BSTAR
0.00036441
Loading maneuver chart data...
Computing Atmospheric mass density...
Loading historical data...
Loading historical data...
Loading historical data...
Loading historical data...
Loading historical data...
Loading historical data...
Loading historical data...

Documentation

Showing up to 5 results
|